TimeEDT,TemperatureF,Dew PointF,Humidity,Sea Level PressureIn,VisibilityMPH,Wind Direction,Wind SpeedMPH,Gust SpeedMPH,PrecipitationIn,Events,Conditions,WindDirDegrees,DateUTC
12:01 AM,37.4,35.6,93,30.20,3.0,Calm,Calm,-,N/A,,Clear,0,2012-10-08 04:01:00
12:19 AM,35.6,33.8,93,30.20,2.5,Calm,Calm,-,N/A,,Clear,0,2012-10-08 04:19:00
12:51 AM,35.1,34.0,96,30.25,2.5,Calm,Calm,-,N/A,,Clear,0,2012-10-08 04:51:00
1:07 AM,33.8,33.8,100,30.19,0.8,Calm,Calm,-,N/A,,Clear,0,2012-10-08 05:07:00
1:22 AM,35.6,33.8,93,30.19,2.5,Calm,Calm,-,N/A,,Clear,0,2012-10-08 05:22:00
1:27 AM,35.6,33.8,93,30.19,2.0,Calm,Calm,-,N/A,,Partly Cloudy,0,2012-10-08 05:27:00
1:30 AM,35.6,33.8,93,30.19,1.0,Calm,Calm,-,N/A,,Mist,0,2012-10-08 05:30:00
1:37 AM,33.8,33.8,100,30.19,0.5,Calm,Calm,-,N/A,Fog,Fog,0,2012-10-08 05:37:00
1:51 AM,34.0,32.0,92,30.24,0.5,Calm,Calm,-,N/A,Fog,Fog,0,2012-10-08 05:51:00
2:40 AM,35.6,33.8,93,30.19,0.2,Calm,Calm,-,N/A,Fog,Fog,0,2012-10-08 06:40:00
2:51 AM,35.1,34.0,96,30.24,0.2,Calm,Calm,-,N/A,Fog,Fog,0,2012-10-08 06:51:00
3:51 AM,35.6,33.8,93,30.20,0.2,Calm,Calm,-,N/A,Fog,Fog,0,2012-10-08 07:51:00
4:01 AM,35.6,33.8,93,30.21,0.5,Calm,Calm,-,N/A,Fog,Fog,0,2012-10-08 08:01:00
4:20 AM,35.6,33.8,93,30.21,2.0,Calm,Calm,-,N/A,,Overcast,0,2012-10-08 08:20:00
4:29 AM,35.6,33.8,93,30.21,3.0,Calm,Calm,-,N/A,,Overcast,0,2012-10-08 08:29:00
4:51 AM,35.1,34.0,96,30.28,6.0,Calm,Calm,-,N/A,,Overcast,0,2012-10-08 08:51:00
5:30 AM,35.6,35.6,100,30.23,2.0,Calm,Calm,-,N/A,,Overcast,0,2012-10-08 09:30:00
5:37 AM,35.6,35.6,100,30.23,1.8,Calm,Calm,-,N/A,,Overcast,0,2012-10-08 09:37:00
5:48 AM,35.6,35.6,100,30.23,2.5,Calm,Calm,-,N/A,,Overcast,0,2012-10-08 09:48:00
5:51 AM,36.0,35.1,97,30.29,3.0,Calm,Calm,-,N/A,,Overcast,0,2012-10-08 09:51:00
6:51 AM,37.0,35.1,93,30.28,6.0,Calm,Calm,-,N/A,,Overcast,0,2012-10-08 10:51:00
7:51 AM,37.0,35.1,93,30.29,4.0,Calm,Calm,-,N/A,,Overcast,0,2012-10-08 11:51:00
8:51 AM,37.9,35.1,89,30.30,8.0,Calm,Calm,-,N/A,,Overcast,0,2012-10-08 12:51:00
9:51 AM,37.9,36.0,93,30.31,6.0,Calm,Calm,-,N/A,,Overcast,0,2012-10-08 13:51:00
10:01 AM,37.4,35.6,93,30.25,6.0,Calm,Calm,-,N/A,,Overcast,0,2012-10-08 14:01:00
10:27 AM,39.2,35.6,87,30.25,8.0,Calm,Calm,-,N/A,,Overcast,0,2012-10-08 14:27:00
10:46 AM,39.2,35.6,87,30.25,6.0,Calm,Calm,-,0.00,Rain,Light Rain,0,2012-10-08 14:46:00
10:51 AM,39.0,36.0,89,30.31,5.0,Calm,Calm,-,0.01,Rain,Light Rain,0,2012-10-08 14:51:00
11:12 AM,39.2,37.4,93,30.24,3.0,Calm,Calm,-,0.02,Rain,Light Rain,0,2012-10-08 15:12:00
11:51 AM,39.9,37.0,89,30.30,4.0,Calm,Calm,-,0.06,Rain,Light Rain,0,2012-10-08 15:51:00
12:41 PM,41.0,37.4,87,30.26,3.0,SW,3.5,-,0.05,Rain,Rain,220,2012-10-08 16:41:00
12:51 PM,41.0,37.0,86,30.32,3.0,SSW,3.5,-,0.07,Rain,Rain,210,2012-10-08 16:51:00
1:47 PM,39.2,37.4,93,30.25,3.0,Calm,Calm,-,0.12,Rain,Rain,0,2012-10-08 17:47:00
1:51 PM,39.9,36.0,86,30.30,3.0,Calm,Calm,-,0.13,Rain,Rain,0,2012-10-08 17:51:00
2:10 PM,39.2,35.6,87,30.24,10.0,Calm,Calm,-,0.02,Rain,Light Rain,0,2012-10-08 18:10:00
2:42 PM,39.2,35.6,87,30.23,4.0,Calm,Calm,-,0.05,Rain,Light Rain,0,2012-10-08 18:42:00
2:51 PM,39.9,37.0,89,30.29,4.0,Calm,Calm,-,0.07,Rain,Light Rain,0,2012-10-08 18:51:00
3:16 PM,39.2,35.6,87,30.23,7.0,Calm,Calm,-,0.01,Rain,Light Rain,0,2012-10-08 19:16:00
3:24 PM,39.2,35.6,87,30.22,9.0,Calm,Calm,-,N/A,Rain,Light Rain,0,2012-10-08 19:24:00
3:51 PM,41.0,37.0,86,30.29,8.0,West,3.5,-,0.02,Rain,Light Rain,280,2012-10-08 19:51:00
4:24 PM,41.0,37.4,87,30.22,8.0,Calm,Calm,-,0.02,Rain,Light Rain,0,2012-10-08 20:24:00
4:51 PM,41.0,37.9,89,30.27,9.0,Calm,Calm,-,0.03,Rain,Light Rain,0,2012-10-08 20:51:00
5:46 PM,42.8,37.4,81,30.19,10.0,Calm,Calm,-,0.01,Rain,Light Rain,0,2012-10-08 21:46:00
5:51 PM,42.1,37.9,85,30.25,10.0,Calm,Calm,-,0.01,Rain,Light Rain,0,2012-10-08 21:51:00
6:13 PM,42.8,37.4,81,30.19,10.0,NNW,3.5,-,0.00,,Overcast,340,2012-10-08 22:13:00
6:51 PM,42.1,39.0,89,30.24,10.0,Calm,Calm,-,0.00,,Overcast,0,2012-10-08 22:51:00
7:51 PM,41.0,37.4,87,30.17,10.0,Calm,Calm,-,N/A,,Overcast,0,2012-10-08 23:51:00
8:51 PM,39.9,37.9,93,30.24,10.0,Calm,Calm,-,N/A,,Overcast,0,2012-10-09 00:51:00
9:51 PM,39.9,37.9,93,30.25,10.0,Calm,Calm,-,N/A,,Overcast,0,2012-10-09 01:51:00
10:15 PM,41.0,37.4,87,30.19,10.0,Calm,Calm,-,N/A,,Overcast,0,2012-10-09 02:15:00
10:51 PM,41.0,37.9,89,30.25,10.0,Calm,Calm,-,N/A,,Overcast,0,2012-10-09 02:51:00
11:51 PM,41.0,37.9,89,30.25,10.0,Calm,Calm,-,N/A,,Overcast,0,2012-10-09 03:51:00